Regional Weather Roundup
Issued by NWS Lake Charles, LA

Home | Current Version | Previous Version | Text Only | Print | Product List | Glossary On
Versions: 1 2 3 4 5 6 7 8 9 10 11 12 13 14 15 16 17 18 19 20 21 22 23 24 25 26 27 28 29 30 31 32 33 34 35 36 37 38 39 40 41 42 43 44 45 46 47 48 49 50
000
ASUS44 KLCH 262010
RWRLCH
RWRLCH
REGIONAL WEATHER ROUNDUP
NATIONAL WEATHER SERVICE LAKE CHARLES LA
200 PM CST WED NOV 26 2014

Note: "fair" indicates few or no clouds below 12,000 feet with no
significant weather and/or obstructions to visibility.


ACROSS SOUTHEAST TEXAS

CITY           SKY/WX    TMP DP  RH WIND       PRES   REMARKS
BEAUMONT       SUNNY     71  38  29 SW15G24   30.17F
BEAUMONT CITY    N/A     71  37  29 W12G18    30.17F
ORANGE         CLEAR     70  37  30 SW12G21   30.18F
JASPER         SUNNY     69  35  29 SW13      30.17S
$$

ACROSS CENTRAL LOUISIANA

CITY           SKY/WX    TMP DP  RH WIND       PRES   REMARKS
LEESVILLE      SUNNY     68  37  32 W14G25    30.12F
FULLERTON        N/A     71  37  28 MISG      30.10F
ALEXANDRIA INT SUNNY     68  39  34 SW18G30   30.10F
ESLER FIELD    SUNNY     71  36  27 SW17G28   30.11S
DERIDDER         N/A     69  33  25 SW22G30   30.16F
OAKDALE        CLEAR     71  37  29 SW14G22   30.14F
OPELOUSAS        N/A     68  42  39 SW12G21   30.15F
$$

ACROSS SOUTHWEST AND SOUTH CENTRAL LOUISIANA

CITY           SKY/WX    TMP DP  RH WIND       PRES   REMARKS
SULPHUR        CLEAR     72  40  30 SW14G22   30.17F
LAKE CHARLES   SUNNY     69  41  36 SW14G23   30.17F
CHENNAULT INT  NOT AVBL
CAMERON PHI    CLEAR     64  55  72 SW12      30.22F
DEQUINCY         N/A     69  39  32 SW10G18   30.16F
JENNINGS         N/A     69  40  35 SW16G23   30.17F
LAFAYETTE      SUNNY     69  38  32 SW15G25   30.17F
NEW IBERIA     SUNNY     70  38  31 W14G26    30.19F
ABBEVILLE        N/A     69  37  31 SW15G22   30.19S
PATTERSON      SUNNY     68  39  34 W16G23    30.22S
SALT POINT       N/A     68  52  56 SW6       30.21F
$$

SELECTED SITES ACROSS THE REGION

CITY           SKY/WX    TMP DP  RH WIND       PRES   REMARKS
HOUSTON BUSH   SUNNY     72  34  24 SW10G17   30.16F
HOUSTON HOBBY  SUNNY     71  35  26 SW17      30.17F
GALVESTON      SUNNY     71  46  40 SW16G26   30.20F
COLLEGE STAT   SUNNY     71  33  24 W13       30.15F
CONROE         SUNNY     70  32  24 SW9G20    30.15F
HUNTSVILLE     SUNNY     69  34  27 W10G21    30.15F
LUFKIN         SUNNY     72  34  24 W10G21    30.14S
SHREVEPORT     MOSUNNY   67  31  26 W14G24    30.10R
MONROE         MOSUNNY   69  34  27 W24G32    30.05F
NATCHEZ MS     SUNNY     68  37  32 SW20G35   30.11S
BATON ROUGE    SUNNY     70  34  26 W20G26    30.15F
N.O. INTL ARPT MOSUNNY   69  34  27 SW16G25   30.19F
SLIDELL        SUNNY     63  33  32 SW9       30.18F
$$

MARINE REPORTS

STATION/POSITION TIME  TEMP    WIND        PRES    VSBY  WAVE
                       AIR SEA DIR/SP/G                  HT/PER
                 (UTC) (F)     (DEG/KT/KT) (MB)    (MI)  (FT/S)
BUOY 30 S HIGH I 2000   63 61  240/ 14/ 16 1022.4F         3/ 4
SEA RIM ST PARK  2000   64     230/ 13/ 16 1022.7F
PORT ARTHUR      2000      59  270/ 13/ 20 1021.7F
SABINE PASS N    2000   67 59  240/  9/ 22 1021.9
TEXAS POINT      NOT AVBL
CALCASIEU PASS   2000   63 58  250/ 11/ 14   N/A
LK CHARLES BEACH 2000   68 60              1021.5F
MARSH ISLAND     NOT AVBL
FRESH WATER LOCK 2000   66 58  230/ 11/ 17 1022.8R
AMERADA PASS     2000   64 55  190/  5/ 10 1023.0S
$$


USA.gov is the U.S. government's official web portal to all federal, state and local government web resources and services.